Time,TemperatureF,DewpointF,PressureIn,WindDirection,WindDirectionDegrees,WindSpeedMPH,WindSpeedGustMPH,Humidity,HourlyPrecipIn,Conditions,Clouds,dailyrainin,SoftwareType,DateUTC
2013-10-09 00:01:00,60.1,56.8,30.07,NE,52,0.0,0.0,89,0.00,RA,,0.00,WeatherDisplay:10.37,2013-10-09 04:01:00,
2013-10-09 00:06:00,60.0,56.7,30.06,NNE,21,6.0,6.0,89,0.00,RA,,0.00,WeatherDisplay:10.37,2013-10-09 04:06:00,
2013-10-09 00:11:00,59.9,56.6,30.06,NNE,32,0.0,0.0,89,0.00,CLR,,0.00,WeatherDisplay:10.37,2013-10-09 04:11:00,
2013-10-09 00:16:00,59.8,56.9,30.06,ENE,59,0.0,0.0,90,0.00,CLR,,0.00,WeatherDisplay:10.37,2013-10-09 04:16:00,
2013-10-09 00:21:00,59.8,56.9,30.06,NNE,32,1.2,0.0,90,0.00,CLR,,0.00,WeatherDisplay:10.37,2013-10-09 04:21:00,
2013-10-09 00:26:00,59.7,56.8,30.06,NE,34,0.0,0.0,90,0.00,CLR,,0.00,WeatherDisplay:10.37,2013-10-09 04:26:00,
2013-10-09 00:31:00,59.8,56.9,30.06,NE,48,1.2,1.2,90,0.00,CLR,,0.00,WeatherDisplay:10.37,2013-10-09 04:31:00,
2013-10-09 00:36:00,59.7,56.8,30.06,ENE,67,1.2,1.2,90,0.00,CLR,,0.00,WeatherDisplay:10.37,2013-10-09 04:36:00,
2013-10-09 00:41:00,59.7,56.8,30.06,NNE,31,1.2,0.0,90,0.00,CLR,,0.00,WeatherDisplay:10.37,2013-10-09 04:41:00,
2013-10-09 00:46:00,59.6,56.7,30.06,NE,48,3.5,3.5,90,0.00,CLR,,0.00,WeatherDisplay:10.37,2013-10-09 04:46:00,
2013-10-09 00:51:00,59.6,57.0,30.06,NE,54,0.0,0.0,91,0.00,CLR,,0.00,WeatherDisplay:10.37,2013-10-09 04:51:00,
2013-10-09 00:56:00,59.6,57.0,30.06,NE,37,1.0,0.0,91,0.00,CLR,,0.00,WeatherDisplay:10.37,2013-10-09 04:56:00,
2013-10-09 01:01:00,59.5,56.9,30.06,NNE,23,5.0,5.0,91,0.00,CLR,,0.00,WeatherDisplay:10.37,2013-10-09 05:01:00,
2013-10-09 01:06:00,59.5,56.9,30.06,NE,38,4.6,4.6,91,0.00,CLR,,0.00,WeatherDisplay:10.37,2013-10-09 05:06:00,
2013-10-09 01:11:00,59.4,56.8,30.06,NNE,21,3.5,3.5,91,0.00,CLR,,0.00,WeatherDisplay:10.37,2013-10-09 05:11:00,
2013-10-09 01:16:00,59.4,56.8,30.06,WNW,302,8.1,8.1,91,0.00,CLR,,0.00,WeatherDisplay:10.37,2013-10-09 05:16:00,
2013-10-09 01:21:00,59.3,56.7,30.06,NE,41,3.5,3.5,91,0.00,CLR,,0.00,WeatherDisplay:10.37,2013-10-09 05:21:00,
2013-10-09 01:26:00,59.2,56.6,30.05,NNW,344,3.5,3.5,91,0.00,CLR,,0.00,WeatherDisplay:10.37,2013-10-09 05:26:00,
2013-10-09 01:31:00,59.1,56.8,30.06,NE,38,0.0,0.0,92,0.00,CLR,,0.00,WeatherDisplay:10.37,2013-10-09 05:31:00,
2013-10-09 01:36:00,59.1,56.8,30.06,NNE,22,8.1,8.1,92,0.00,CLR,,0.00,WeatherDisplay:10.37,2013-10-09 05:36:00,
2013-10-09 01:41:00,59.1,56.8,30.06,NNE,28,3.5,3.5,92,0.00,CLR,,0.00,WeatherDisplay:10.37,2013-10-09 05:41:00,
2013-10-09 01:46:00,59.0,56.7,30.06,NE,45,0.0,0.0,92,0.00,CLR,,0.00,WeatherDisplay:10.37,2013-10-09 05:46:00,
2013-10-09 01:51:00,59.0,56.7,30.06,NNE,25,1.2,0.0,92,0.00,CLR,,0.00,WeatherDisplay:10.37,2013-10-09 05:51:00,
2013-10-09 01:56:00,59.0,56.7,30.06,North,360,4.6,4.6,92,0.00,CLR,,0.00,WeatherDisplay:10.37,2013-10-09 05:56:00,
2013-10-09 02:01:00,59.0,56.7,30.06,North,10,0.0,0.0,92,0.00,CLR,,0.00,WeatherDisplay:10.37,2013-10-09 06:01:00,
2013-10-09 02:06:00,59.0,57.0,30.06,NNE,18,0.0,0.0,93,0.00,CLR,,0.00,WeatherDisplay:10.37,2013-10-09 06:06:00,
2013-10-09 02:11:00,59.1,57.1,30.06,NNE,28,3.5,3.5,93,0.00,CLR,,0.00,WeatherDisplay:10.37,2013-10-09 06:11:00,
2013-10-09 02:16:00,59.0,57.0,30.06,NNE,28,0.0,0.0,93,0.00,CLR,,0.00,WeatherDisplay:10.37,2013-10-09 06:16:00,
2013-10-09 02:21:00,59.0,57.0,30.06,North,10,1.2,0.0,93,0.00,CLR,,0.00,WeatherDisplay:10.37,2013-10-09 06:21:00,
2013-10-09 02:26:00,59.0,57.0,30.06,NNW,345,1.2,0.0,93,0.00,CLR,,0.00,WeatherDisplay:10.37,2013-10-09 06:26:00,
2013-10-09 02:31:00,59.0,57.0,30.06,NW,307,0.0,0.0,93,0.00,CLR,,0.00,WeatherDisplay:10.37,2013-10-09 06:31:00,
2013-10-09 02:36:00,59.0,57.0,30.06,NNW,346,0.0,0.0,93,0.00,CLR,,0.00,WeatherDisplay:10.37,2013-10-09 06:36:00,
2013-10-09 02:41:00,59.0,57.0,30.06,NNW,346,1.0,0.0,93,0.00,CLR,,0.00,WeatherDisplay:10.37,2013-10-09 06:41:00,
2013-10-09 02:46:00,59.1,57.1,30.06,North,355,0.0,0.0,93,0.00,CLR,,0.00,WeatherDisplay:10.37,2013-10-09 06:46:00,
2013-10-09 02:51:00,59.1,57.1,30.06,NNE,26,3.5,0.0,93,0.00,CLR,,0.00,WeatherDisplay:10.37,2013-10-09 06:51:00,
2013-10-09 02:56:00,59.0,57.0,30.06,NW,319,0.0,0.0,93,0.00,CLR,,0.00,WeatherDisplay:10.37,2013-10-09 06:56:00,
2013-10-09 03:01:00,59.1,57.1,30.05,North,360,0.0,0.0,93,0.00,CLR,,0.00,WeatherDisplay:10.37,2013-10-09 07:01:00,
2013-10-09 03:06:00,59.1,57.1,30.05,NE,48,3.5,0.0,93,0.00,CLR,,0.00,WeatherDisplay:10.37,2013-10-09 07:06:00,
2013-10-09 03:11:00,59.0,57.0,30.05,South,190,0.0,0.0,93,0.00,CLR,,0.00,WeatherDisplay:10.37,2013-10-09 07:11:00,
2013-10-09 03:16:00,59.0,56.7,30.05,NNW,338,0.0,0.0,92,0.00,CLR,,0.00,WeatherDisplay:10.37,2013-10-09 07:16:00,
2013-10-09 03:21:00,59.0,56.7,30.05,NNE,32,2.3,2.3,92,0.00,CLR,,0.00,WeatherDisplay:10.37,2013-10-09 07:21:00,
2013-10-09 03:26:00,59.0,56.7,30.05,North,360,3.5,3.5,92,0.00,CLR,,0.00,WeatherDisplay:10.37,2013-10-09 07:26:00,
2013-10-09 03:31:00,59.0,56.7,30.05,NE,40,3.5,3.5,92,0.00,CLR,,0.00,WeatherDisplay:10.37,2013-10-09 07:31:00,
2013-10-09 03:36:00,59.0,56.7,30.05,NNE,24,0.0,0.0,92,0.00,CLR,,0.00,WeatherDisplay:10.37,2013-10-09 07:36:00,
2013-10-09 03:41:00,59.0,56.7,30.05,NNE,21,0.0,0.0,92,0.00,CLR,,0.00,WeatherDisplay:10.37,2013-10-09 07:41:00,
2013-10-09 03:46:00,59.0,56.7,30.05,NNE,15,0.0,0.0,92,0.00,CLR,,0.00,WeatherDisplay:10.37,2013-10-09 07:46:00,
2013-10-09 03:51:00,59.0,56.7,30.05,NE,46,0.0,0.0,92,0.00,CLR,,0.00,WeatherDisplay:10.37,2013-10-09 07:51:00,
2013-10-09 03:56:00,59.0,56.4,30.05,NE,43,3.5,3.5,91,0.00,CLR,,0.00,WeatherDisplay:10.37,2013-10-09 07:56:00,
2013-10-09 04:01:00,59.1,56.5,30.05,NE,51,0.0,0.0,91,0.00,CLR,,0.00,WeatherDisplay:10.37,2013-10-09 08:01:00,
2013-10-09 04:06:00,59.0,56.4,30.05,NE,41,0.0,0.0,91,0.00,CLR,,0.00,WeatherDisplay:10.37,2013-10-09 08:06:00,
2013-10-09 04:11:00,59.0,56.4,30.05,NE,51,6.9,6.9,91,0.00,CLR,,0.00,WeatherDisplay:10.37,2013-10-09 08:11:00,
2013-10-09 04:16:00,59.0,56.4,30.05,NE,48,0.0,0.1,91,0.00,CLR,,0.00,WeatherDisplay:10.37,2013-10-09 08:16:00,
2013-10-09 04:21:00,59.0,56.4,30.05,NNE,25,8.1,0.0,91,0.00,CLR,,0.00,WeatherDisplay:10.37,2013-10-09 08:21:00,
2013-10-09 04:26:00,59.0,56.4,30.05,NNE,23,0.0,0.0,91,0.00,CLR,,0.00,WeatherDisplay:10.37,2013-10-09 08:26:00,
2013-10-09 04:31:00,59.0,56.4,30.05,NNE,26,0.0,0.0,91,0.00,CLR,,0.00,WeatherDisplay:10.37,2013-10-09 08:31:00,
2013-10-09 04:36:00,59.0,56.4,30.05,NE,34,0.0,0.1,91,0.00,CLR,,0.00,WeatherDisplay:10.37,2013-10-09 08:36:00,
2013-10-09 04:41:00,59.0,56.1,30.05,NNW,336,0.0,0.0,90,0.00,CLR,,0.00,WeatherDisplay:10.37,2013-10-09 08:41:00,
2013-10-09 04:46:00,59.0,56.1,30.05,NE,34,1.0,1.0,90,0.00,CLR,,0.00,WeatherDisplay:10.37,2013-10-09 08:46:00,
2013-10-09 04:51:00,59.0,56.1,30.05,NNE,25,0.0,0.0,90,0.00,CLR,,0.00,WeatherDisplay:10.37,2013-10-09 08:51:00,
2013-10-09 04:56:00,59.0,56.1,30.05,NNE,30,3.5,3.5,90,0.00,CLR,,0.00,WeatherDisplay:10.37,2013-10-09 08:56:00,
2013-10-09 05:01:00,59.0,56.1,30.05,NNE,22,3.5,3.5,90,0.00,CLR,,0.00,WeatherDisplay:10.37,2013-10-09 09:01:00,
2013-10-09 05:06:00,59.0,56.1,30.05,NW,320,6.9,6.9,90,0.00,CLR,,0.00,WeatherDisplay:10.37,2013-10-09 09:06:00,
2013-10-09 05:11:00,59.0,56.1,30.05,North,5,0.0,0.0,90,0.00,CLR,,0.00,WeatherDisplay:10.37,2013-10-09 09:11:00,
2013-10-09 05:16:00,59.0,56.1,30.05,NE,44,3.5,0.0,90,0.00,CLR,,0.00,WeatherDisplay:10.37,2013-10-09 09:16:00,
2013-10-09 05:21:00,59.0,56.1,30.05,NNE,28,6.0,6.0,90,0.00,CLR,,0.00,WeatherDisplay:10.37,2013-10-09 09:21:00,
2013-10-09 05:26:00,59.0,56.1,30.05,North,5,11.5,0.0,90,0.00,CLR,,0.00,WeatherDisplay:10.37,2013-10-09 09:26:00,
2013-10-09 05:31:00,59.0,56.1,30.06,NE,46,1.2,1.2,90,0.00,CLR,,0.00,WeatherDisplay:10.37,2013-10-09 09:31:00,
2013-10-09 05:36:00,59.0,56.1,30.06,NNE,13,4.6,0.0,90,0.00,CLR,,0.00,WeatherDisplay:10.37,2013-10-09 09:36:00,
2013-10-09 05:41:00,59.0,56.1,30.06,NE,49,7.0,7.0,90,0.00,CLR,,0.00,WeatherDisplay:10.37,2013-10-09 09:41:00,
2013-10-09 05:46:00,59.0,56.1,30.06,NE,46,5.8,5.8,90,0.00,CLR,,0.00,WeatherDisplay:10.37,2013-10-09 09:46:00,
2013-10-09 05:51:00,59.0,56.1,30.06,NNE,23,6.9,6.9,90,0.00,CLR,,0.00,WeatherDisplay:10.37,2013-10-09 09:51:00,
2013-10-09 05:56:00,59.0,56.1,30.06,West,277,1.2,1.2,90,0.00,CLR,,0.00,WeatherDisplay:10.37,2013-10-09 09:56:00,
2013-10-09 06:01:00,59.0,56.1,30.06,NE,40,0.0,0.0,90,0.00,CLR,,0.00,WeatherDisplay:10.37,2013-10-09 10:01:00,
2013-10-09 06:06:00,59.0,56.1,30.06,NNE,30,12.7,12.7,90,0.00,CLR,,0.00,WeatherDisplay:10.37,2013-10-09 10:06:00,
2013-10-09 06:11:00,59.0,56.1,30.06,NE,42,10.0,10.0,90,0.00,CLR,,0.00,WeatherDisplay:10.37,2013-10-09 10:11:00,
2013-10-09 06:16:00,59.0,56.7,30.06,NE,40,10.0,10.0,92,0.00,CLR,,0.00,WeatherDisplay:10.37,2013-10-09 10:16:00,
2013-10-09 06:21:00,59.0,56.7,30.07,NE,41,0.0,0.6,92,0.00,CLR,,0.00,WeatherDisplay:10.37,2013-10-09 10:21:00,
2013-10-09 06:26:00,59.0,56.1,30.07,NE,42,1.2,1.2,90,0.00,CLR,,0.00,WeatherDisplay:10.37,2013-10-09 10:26:00,
2013-10-09 06:31:00,59.0,56.1,30.07,NNE,30,9.2,9.2,90,0.00,CLR,,0.00,WeatherDisplay:10.37,2013-10-09 10:31:00,
2013-10-09 06:36:00,59.0,56.7,30.07,North,350,6.9,6.9,92,0.00,CLR,,0.00,WeatherDisplay:10.37,2013-10-09 10:36:00,
2013-10-09 06:41:00,59.0,56.1,30.07,ENE,63,4.6,0.0,90,0.00,CLR,,0.00,WeatherDisplay:10.37,2013-10-09 10:41:00,
2013-10-09 06:46:00,59.0,56.1,30.07,North,11,3.0,3.0,90,0.00,CLR,,0.00,WeatherDisplay:10.37,2013-10-09 10:46:00,
2013-10-09 06:51:00,59.0,56.1,30.07,NNW,348,0.0,0.0,90,0.00,CLR,,0.00,WeatherDisplay:10.37,2013-10-09 10:51:00,
2013-10-09 06:56:00,59.0,56.1,30.07,North,5,6.9,6.9,90,0.00,CLR,,0.00,WeatherDisplay:10.37,2013-10-09 10:56:00,
2013-10-09 07:01:00,59.0,56.1,30.07,NE,38,0.0,0.0,90,0.00,CLR,,0.00,WeatherDisplay:10.37,2013-10-09 11:01:00,
2013-10-09 07:06:00,59.0,56.1,30.07,North,5,4.6,4.6,90,0.00,CLR,,0.00,WeatherDisplay:10.37,2013-10-09 11:06:00,
2013-10-09 07:11:00,59.0,56.1,30.07,NE,41,5.8,5.8,90,0.00,CLR,,0.00,WeatherDisplay:10.37,2013-10-09 11:11:00,
2013-10-09 07:16:00,59.0,56.1,30.07,NNE,32,3.5,0.0,90,0.00,CLR,,0.00,WeatherDisplay:10.37,2013-10-09 11:16:00,
2013-10-09 07:21:00,58.9,56.0,30.07,NE,40,1.2,1.2,90,0.00,CLR,,0.00,WeatherDisplay:10.37,2013-10-09 11:21:00,
2013-10-09 07:26:00,58.9,56.0,30.07,North,5,1.2,1.2,90,0.00,CLR,,0.00,WeatherDisplay:10.37,2013-10-09 11:26:00,
2013-10-09 07:31:00,59.0,56.1,30.08,NE,43,2.3,2.3,90,0.00,CLR,,0.00,WeatherDisplay:10.37,2013-10-09 11:31:00,
2013-10-09 07:36:00,59.0,56.1,30.08,NE,46,0.0,0.0,90,0.00,CLR,,0.00,WeatherDisplay:10.37,2013-10-09 11:36:00,
2013-10-09 07:41:00,59.0,56.1,30.08,NNE,32,4.6,0.0,90,0.00,CLR,,0.00,WeatherDisplay:10.37,2013-10-09 11:41:00,
2013-10-09 07:46:00,59.0,56.1,30.08,NE,52,0.0,0.0,90,0.00,CLR,,0.00,WeatherDisplay:10.37,2013-10-09 11:46:00,
2013-10-09 07:51:00,59.0,56.7,30.08,NNE,30,5.8,5.8,92,0.00,CLR,,0.00,WeatherDisplay:10.37,2013-10-09 11:51:00,
2013-10-09 07:56:00,59.0,56.1,30.09,NNE,13,0.0,0.0,90,0.00,CLR,,0.00,WeatherDisplay:10.37,2013-10-09 11:56:00,
2013-10-09 08:01:00,58.9,56.0,30.09,NNE,13,0.0,0.0,90,0.00,CLR,,0.00,WeatherDisplay:10.37,2013-10-09 12:01:00,
2013-10-09 08:03:00,58.9,56.0,30.09,North,10,0.0,0.0,90,0.00,CLR,,0.00,WeatherDisplay:10.37,2013-10-09 12:03:00,
2013-10-09 08:08:00,59.0,56.1,30.09,NNE,13,0.0,0.0,90,0.00,CLR,,0.00,WeatherDisplay:10.37,2013-10-09 12:08:00,
2013-10-09 08:13:00,59.0,56.7,30.09,SE,135,0.0,0.0,92,0.00,CLR,,0.00,WeatherDisplay:10.37,2013-10-09 12:13:00,
2013-10-09 08:18:00,59.0,56.1,30.10,SE,135,0.0,0.0,90,0.00,CLR,,0.00,WeatherDisplay:10.37,2013-10-09 12:18:00,
2013-10-09 08:23:00,59.0,56.1,30.10,SE,130,0.0,0.0,90,0.00,CLR,,0.00,WeatherDisplay:10.37,2013-10-09 12:23:00,
2013-10-09 08:28:00,59.0,56.1,30.10,NE,36,0.0,0.0,90,0.00,CLR,,0.00,WeatherDisplay:10.37,2013-10-09 12:28:00,
2013-10-09 08:33:00,59.3,56.4,30.10,NNE,30,0.0,0.0,90,0.00,CLR,,0.00,WeatherDisplay:10.37,2013-10-09 12:33:00,
2013-10-09 08:38:00,59.6,56.4,30.10,NNE,15,0.0,0.0,89,0.00,CLR,,0.00,WeatherDisplay:10.37,2013-10-09 12:38:00,
2013-10-09 08:43:00,60.0,56.7,30.10,NNE,24,0.0,0.0,89,0.00,CLR,,0.00,WeatherDisplay:10.37,2013-10-09 12:43:00,
2013-10-09 08:48:00,60.4,57.1,30.10,NNE,23,0.0,0.0,89,0.00,CLR,,0.00,WeatherDisplay:10.37,2013-10-09 12:48:00,
2013-10-09 08:53:00,60.8,57.2,30.10,NE,35,0.0,0.0,88,0.00,CLR,,0.00,WeatherDisplay:10.37,2013-10-09 12:53:00,
2013-10-09 08:58:00,61.2,57.3,30.10,NNE,32,0.0,0.0,87,0.00,CLR,,0.00,WeatherDisplay:10.37,2013-10-09 12:58:00,
2013-10-09 09:03:00,61.5,57.3,30.10,NNE,28,0.0,0.0,86,0.00,CLR,,0.00,WeatherDisplay:10.37,2013-10-09 13:03:00,
2013-10-09 09:08:00,61.9,57.3,30.10,NE,40,0.0,0.0,85,0.00,CLR,,0.00,WeatherDisplay:10.37,2013-10-09 13:08:00,
2013-10-09 09:13:00,62.3,57.7,30.10,NNE,28,3.5,3.5,85,0.00,CLR,,0.00,WeatherDisplay:10.37,2013-10-09 13:13:00,
2013-10-09 09:18:00,62.6,58.0,30.10,NNE,17,0.0,0.0,85,0.00,CLR,,0.00,WeatherDisplay:10.37,2013-10-09 13:18:00,
2013-10-09 09:23:00,62.9,58.0,30.11,North,5,2.3,0.0,84,0.00,CLR,,0.00,WeatherDisplay:10.37,2013-10-09 13:23:00,
2013-10-09 09:28:00,62.9,58.0,30.11,North,5,0.0,0.0,84,0.00,CLR,,0.00,WeatherDisplay:10.37,2013-10-09 13:28:00,
2013-10-09 09:33:00,62.9,58.0,30.11,North,5,5.8,5.8,84,0.00,CLR,,0.00,WeatherDisplay:10.37,2013-10-09 13:33:00,
2013-10-09 09:38:00,62.7,57.8,30.11,NNE,29,3.5,3.5,84,0.00,CLR,,0.00,WeatherDisplay:10.37,2013-10-09 13:38:00,
2013-10-09 09:43:00,62.7,57.5,30.11,NE,52,5.8,5.8,83,0.00,CLR,,0.00,WeatherDisplay:10.37,2013-10-09 13:43:00,
2013-10-09 09:48:00,62.7,57.8,30.11,NNE,12,5.0,5.0,84,0.00,CLR,,0.00,WeatherDisplay:10.37,2013-10-09 13:48:00,
2013-10-09 09:53:00,63.0,58.1,30.11,NNE,33,11.0,11.0,84,0.00,CLR,,0.00,WeatherDisplay:10.37,2013-10-09 13:53:00,
2013-10-09 09:58:00,63.2,57.9,30.10,NE,43,11.5,11.5,83,0.00,CLR,,0.00,WeatherDisplay:10.37,2013-10-09 13:58:00,
2013-10-09 10:03:00,63.6,58.3,30.10,NNE,25,10.4,10.4,83,0.00,CLR,,0.00,WeatherDisplay:10.37,2013-10-09 14:03:00,
2013-10-09 10:08:00,63.8,58.5,30.10,ENE,59,8.1,8.1,83,0.00,CLR,,0.00,WeatherDisplay:10.37,2013-10-09 14:08:00,
2013-10-09 10:13:00,64.1,58.5,30.10,NE,40,13.8,13.8,82,0.00,CLR,,0.00,WeatherDisplay:10.37,2013-10-09 14:13:00,
2013-10-09 10:18:00,64.5,58.9,30.10,NE,45,6.9,6.9,82,0.00,CLR,,0.00,WeatherDisplay:10.37,2013-10-09 14:18:00,
2013-10-09 10:23:00,64.9,59.3,30.10,NNE,32,5.8,5.8,82,0.00,CLR,,0.00,WeatherDisplay:10.37,2013-10-09 14:23:00,
2013-10-09 10:28:00,65.7,59.7,30.10,NNE,27,4.6,4.6,81,0.00,CLR,,0.00,WeatherDisplay:10.37,2013-10-09 14:28:00,
2013-10-09 10:33:00,66.1,59.7,30.10,NW,306,3.5,3.5,80,0.00,CLR,,0.00,WeatherDisplay:10.37,2013-10-09 14:33:00,
2013-10-09 10:38:00,66.8,60.4,30.10,North,355,0.0,0.0,80,0.00,CLR,,0.00,WeatherDisplay:10.37,2013-10-09 14:38:00,
2013-10-09 10:43:00,67.2,60.1,30.09,NW,311,10.4,10.4,78,0.00,CLR,,0.00,WeatherDisplay:10.37,2013-10-09 14:43:00,
2013-10-09 10:48:00,67.4,60.3,30.09,NNE,20,8.1,8.1,78,0.00,CLR,,0.00,WeatherDisplay:10.37,2013-10-09 14:48:00,
2013-10-09 10:53:00,67.6,60.1,30.09,NE,49,6.9,6.9,77,0.00,CLR,,0.00,WeatherDisplay:10.37,2013-10-09 14:53:00,
2013-10-09 10:58:00,68.0,60.9,30.09,ENE,68,4.6,0.0,78,0.00,CLR,,0.00,WeatherDisplay:10.37,2013-10-09 14:58:00,
2013-10-09 11:03:00,68.3,60.8,30.09,NNE,28,5.8,5.8,77,0.00,CLR,,0.00,WeatherDisplay:10.37,2013-10-09 15:03:00,
2013-10-09 11:08:00,68.6,61.1,30.09,WSW,240,7.0,7.0,77,0.00,CLR,,0.00,WeatherDisplay:10.37,2013-10-09 15:08:00,
2013-10-09 11:13:00,69.0,61.1,30.09,North,11,8.1,8.1,76,0.00,CLR,,0.00,WeatherDisplay:10.37,2013-10-09 15:13:00,
2013-10-09 11:18:00,69.2,60.9,30.09,NE,46,11.5,11.5,75,0.00,CLR,,0.00,WeatherDisplay:10.37,2013-10-09 15:18:00,
2013-10-09 11:23:00,69.3,61.4,30.09,WNW,291,0.0,0.0,76,0.00,CLR,,0.00,WeatherDisplay:10.37,2013-10-09 15:23:00,
2013-10-09 11:28:00,69.6,61.3,30.09,NW,323,1.2,1.2,75,0.00,CLR,,0.00,WeatherDisplay:10.37,2013-10-09 15:28:00,
2013-10-09 11:33:00,69.8,61.9,30.10,NE,42,6.9,6.9,76,0.00,CLR,,0.00,WeatherDisplay:10.37,2013-10-09 15:33:00,
2013-10-09 11:38:00,70.2,61.5,30.10,NE,39,5.8,5.8,74,0.00,CLR,,0.00,WeatherDisplay:10.37,2013-10-09 15:38:00,
2013-10-09 11:43:00,70.6,61.9,30.10,WNW,288,0.0,0.0,74,0.00,CLR,,0.00,WeatherDisplay:10.37,2013-10-09 15:43:00,
2013-10-09 11:48:00,70.7,61.6,30.10,NE,44,0.0,0.0,73,0.00,CLR,,0.00,WeatherDisplay:10.37,2013-10-09 15:48:00,
2013-10-09 11:53:00,70.3,61.6,30.10,North,355,0.0,0.0,74,0.00,CLR,,0.00,WeatherDisplay:10.37,2013-10-09 15:53:00,
2013-10-09 11:58:00,70.8,63.2,30.10,NNE,31,3.5,3.5,77,0.00,CLR,,0.00,WeatherDisplay:10.37,2013-10-09 15:58:00,
2013-10-09 12:03:00,71.7,62.6,30.09,WNW,300,3.5,3.5,73,0.00,CLR,,0.00,WeatherDisplay:10.37,2013-10-09 16:03:00,
2013-10-09 12:08:00,72.5,63.4,30.09,NNE,24,7.0,7.0,73,0.00,CLR,,0.00,WeatherDisplay:10.37,2013-10-09 16:08:00,
2013-10-09 12:13:00,72.8,62.8,30.09,NE,48,0.0,0.0,71,0.00,CLR,,0.00,WeatherDisplay:10.37,2013-10-09 16:13:00,
2013-10-09 12:18:00,72.8,62.8,30.09,NE,36,8.1,8.1,71,0.00,CLR,,0.00,WeatherDisplay:10.37,2013-10-09 16:18:00,
2013-10-09 12:23:00,73.1,63.9,30.09,NE,50,0.0,0.0,73,0.00,CLR,,0.00,WeatherDisplay:10.37,2013-10-09 16:23:00,
2013-10-09 12:28:00,73.3,63.7,30.09,West,264,6.0,6.0,72,0.00,CLR,,0.00,WeatherDisplay:10.37,2013-10-09 16:28:00,
2013-10-09 12:33:00,73.3,63.3,30.08,West,269,0.0,0.0,71,0.00,CLR,,0.00,WeatherDisplay:10.37,2013-10-09 16:33:00,
2013-10-09 12:38:00,73.3,63.7,30.08,NW,311,1.2,0.0,72,0.00,CLR,,0.00,WeatherDisplay:10.37,2013-10-09 16:38:00,
2013-10-09 12:43:00,73.4,63.4,30.08,NW,312,6.9,6.9,71,0.00,CLR,,0.00,WeatherDisplay:10.37,2013-10-09 16:43:00,
2013-10-09 12:48:00,73.3,63.3,30.08,NNW,340,3.5,0.0,71,0.00,CLR,,0.00,WeatherDisplay:10.37,2013-10-09 16:48:00,
2013-10-09 12:53:00,73.8,63.8,30.08,NW,324,3.5,3.5,71,0.00,CLR,,0.00,WeatherDisplay:10.37,2013-10-09 16:53:00,
2013-10-09 12:58:00,74.4,64.4,30.08,NNE,19,0.0,0.0,71,0.00,CLR,,0.00,WeatherDisplay:10.37,2013-10-09 16:58:00,
2013-10-09 13:03:00,75.3,64.4,30.08,WNW,286,6.9,6.9,69,0.00,CLR,,0.00,WeatherDisplay:10.37,2013-10-09 17:03:00,
2013-10-09 13:08:00,75.4,64.5,30.08,WNW,294,5.0,5.0,69,0.00,CLR,,0.00,WeatherDisplay:10.37,2013-10-09 17:08:00,
2013-10-09 13:13:00,75.2,64.3,30.07,NNW,342,5.0,5.0,69,0.00,CLR,,0.00,WeatherDisplay:10.37,2013-10-09 17:13:00,
2013-10-09 13:18:00,74.8,63.9,30.07,West,275,3.5,3.5,69,0.00,CLR,,0.00,WeatherDisplay:10.37,2013-10-09 17:18:00,
2013-10-09 13:23:00,74.3,63.9,30.07,WNW,303,3.5,3.5,70,0.00,CLR,,0.00,WeatherDisplay:10.37,2013-10-09 17:23:00,
2013-10-09 13:28:00,74.2,63.4,30.07,NW,306,3.5,3.5,69,0.00,CLR,,0.00,WeatherDisplay:10.37,2013-10-09 17:28:00,
2013-10-09 13:33:00,74.7,64.3,30.07,ENE,57,5.8,5.8,70,0.00,CLR,,0.00,WeatherDisplay:10.37,2013-10-09 17:33:00,
2013-10-09 13:38:00,74.9,64.0,30.07,ENE,59,2.3,2.3,69,0.00,CLR,,0.00,WeatherDisplay:10.37,2013-10-09 17:38:00,
2013-10-09 13:43:00,75.0,63.7,30.07,NE,46,10.4,10.4,68,0.00,CLR,,0.00,WeatherDisplay:10.37,2013-10-09 17:43:00,
2013-10-09 13:48:00,75.2,64.7,30.06,West,259,8.1,8.1,70,0.00,CLR,,0.00,WeatherDisplay:10.37,2013-10-09 17:48:00,
2013-10-09 13:53:00,75.5,64.6,30.06,North,11,4.0,4.0,69,0.00,CLR,,0.00,WeatherDisplay:10.37,2013-10-09 17:53:00,
2013-10-09 13:58:00,76.0,64.7,30.06,NNW,331,4.6,4.6,68,0.00,CLR,,0.00,WeatherDisplay:10.37,2013-10-09 17:58:00,
2013-10-09 14:03:00,76.2,65.3,30.06,NW,321,3.0,0.0,69,0.00,CLR,,0.00,WeatherDisplay:10.37,2013-10-09 18:03:00,
2013-10-09 14:08:00,76.8,65.0,30.05,NNE,30,5.8,5.8,67,0.00,CLR,,0.00,WeatherDisplay:10.37,2013-10-09 18:08:00,
2013-10-09 14:13:00,77.2,65.4,30.05,WNW,291,3.5,3.5,67,0.00,CLR,,0.00,WeatherDisplay:10.37,2013-10-09 18:13:00,
2013-10-09 14:18:00,77.1,64.9,30.05,NNW,336,3.5,3.5,66,0.00,CLR,,0.00,WeatherDisplay:10.37,2013-10-09 18:18:00,
2013-10-09 14:23:00,77.2,65.4,30.05,NNW,348,6.9,6.9,67,0.00,CLR,,0.00,WeatherDisplay:10.37,2013-10-09 18:23:00,
2013-10-09 14:28:00,77.1,64.9,30.05,NW,315,4.6,4.6,66,0.00,CLR,,0.00,WeatherDisplay:10.37,2013-10-09 18:28:00,
2013-10-09 14:33:00,77.2,65.0,30.05,West,270,6.9,6.9,66,0.00,CLR,,0.00,WeatherDisplay:10.37,2013-10-09 18:33:00,
2013-10-09 14:38:00,77.3,65.1,30.05,North,360,4.6,4.6,66,0.00,CLR,,0.00,WeatherDisplay:10.37,2013-10-09 18:38:00,
2013-10-09 14:43:00,77.3,65.1,30.05,North,9,3.5,3.5,66,0.00,CLR,,0.00,WeatherDisplay:10.37,2013-10-09 18:43:00,
2013-10-09 14:48:00,77.3,65.1,30.04,WNW,292,6.0,6.0,66,0.00,CLR,,0.00,WeatherDisplay:10.37,2013-10-09 18:48:00,
2013-10-09 14:53:00,77.4,66.0,30.04,NNW,331,8.0,8.0,68,0.00,CLR,,0.00,WeatherDisplay:10.37,2013-10-09 18:53:00,
2013-10-09 14:58:00,78.1,65.8,30.04,NNE,13,5.8,5.8,66,0.00,CLR,,0.00,WeatherDisplay:10.37,2013-10-09 18:58:00,
2013-10-09 15:03:00,78.2,65.9,30.04,NW,315,6.9,6.9,66,0.00,CLR,,0.00,WeatherDisplay:10.37,2013-10-09 19:03:00,
2013-10-09 15:08:00,78.2,65.5,30.04,NW,322,3.0,3.0,65,0.00,CLR,,0.00,WeatherDisplay:10.37,2013-10-09 19:08:00,
2013-10-09 15:13:00,78.2,65.9,30.04,NNE,28,4.6,4.6,66,0.00,CLR,,0.00,WeatherDisplay:10.37,2013-10-09 19:13:00,
2013-10-09 15:18:00,78.2,65.9,30.04,North,355,4.6,4.6,66,0.00,CLR,,0.00,WeatherDisplay:10.37,2013-10-09 19:18:00,
2013-10-09 15:23:00,78.3,65.6,30.04,WNW,284,6.9,6.9,65,0.00,CLR,,0.00,WeatherDisplay:10.37,2013-10-09 19:23:00,
2013-10-09 15:28:00,78.7,65.5,30.04,NNE,28,4.6,4.6,64,0.00,CLR,,0.00,WeatherDisplay:10.37,2013-10-09 19:28:00,
2013-10-09 15:33:00,78.6,65.8,30.04,NE,52,5.8,5.8,65,0.00,CLR,,0.00,WeatherDisplay:10.37,2013-10-09 19:33:00,
2013-10-09 15:38:00,78.7,65.5,30.04,NE,41,4.6,4.6,64,0.00,CLR,,0.00,WeatherDisplay:10.37,2013-10-09 19:38:00,
2013-10-09 15:43:00,78.5,65.8,30.04,WNW,286,4.6,4.6,65,0.00,CLR,,0.00,WeatherDisplay:10.37,2013-10-09 19:43:00,
2013-10-09 15:48:00,78.2,65.5,30.04,West,278,3.5,3.5,65,0.00,CLR,,0.00,WeatherDisplay:10.37,2013-10-09 19:48:00,
2013-10-09 15:53:00,78.3,65.1,30.04,NNW,328,3.5,0.0,64,0.00,CLR,,0.00,WeatherDisplay:10.37,2013-10-09 19:53:00,
2013-10-09 15:58:00,78.4,66.1,30.04,NW,316,1.2,0.0,66,0.00,CLR,,0.00,WeatherDisplay:10.37,2013-10-09 19:58:00,
2013-10-09 16:03:00,78.7,65.9,30.04,NNW,344,2.3,2.3,65,0.00,CLR,,0.00,WeatherDisplay:10.37,2013-10-09 20:03:00,
2013-10-09 16:08:00,78.8,65.1,30.03,North,355,3.5,3.5,63,0.00,CLR,,0.00,WeatherDisplay:10.37,2013-10-09 20:08:00,
2013-10-09 16:13:00,79.0,65.3,30.03,NNE,24,4.6,4.6,63,0.00,CLR,,0.00,WeatherDisplay:10.37,2013-10-09 20:13:00,
2013-10-09 16:18:00,79.2,66.0,30.03,NNE,32,3.5,3.5,64,0.00,CLR,,0.00,WeatherDisplay:10.37,2013-10-09 20:18:00,
2013-10-09 16:23:00,79.3,65.6,30.03,NW,311,4.6,4.6,63,0.00,CLR,,0.00,WeatherDisplay:10.37,2013-10-09 20:23:00,
2013-10-09 16:28:00,79.3,66.1,30.03,ENE,63,8.0,8.0,64,0.00,CLR,,0.00,WeatherDisplay:10.37,2013-10-09 20:28:00,
2013-10-09 16:33:00,79.3,65.6,30.03,NNW,344,4.6,4.6,63,0.00,CLR,,0.00,WeatherDisplay:10.37,2013-10-09 20:33:00,
2013-10-09 16:38:00,79.2,65.5,30.03,NW,309,4.0,4.0,63,0.00,CLR,,0.00,WeatherDisplay:10.37,2013-10-09 20:38:00,
2013-10-09 16:43:00,79.0,65.3,30.03,NW,311,2.3,2.3,63,0.00,CLR,,0.00,WeatherDisplay:10.37,2013-10-09 20:43:00,
2013-10-09 16:48:00,79.1,65.9,30.03,NW,311,0.0,0.0,64,0.00,CLR,,0.00,WeatherDisplay:10.37,2013-10-09 20:48:00,
2013-10-09 16:53:00,79.1,65.4,30.03,WNW,290,3.5,3.5,63,0.00,CLR,,0.00,WeatherDisplay:10.37,2013-10-09 20:53:00,
2013-10-09 16:58:00,79.1,65.4,30.03,NW,319,8.1,8.1,63,0.00,CLR,,0.00,WeatherDisplay:10.37,2013-10-09 20:58:00,
2013-10-09 17:03:00,78.8,65.1,30.03,WNW,282,4.0,4.0,63,0.00,CLR,,0.00,WeatherDisplay:10.37,2013-10-09 21:03:00,
2013-10-09 17:08:00,78.6,64.9,30.03,WNW,302,5.8,5.8,63,0.00,CLR,,0.00,WeatherDisplay:10.37,2013-10-09 21:08:00,
2013-10-09 17:13:00,78.5,65.3,30.03,WNW,288,3.5,3.5,64,0.00,CLR,,0.00,WeatherDisplay:10.37,2013-10-09 21:13:00,
2013-10-09 17:18:00,78.4,65.2,30.03,WNW,300,3.5,3.5,64,0.00,CLR,,0.00,WeatherDisplay:10.37,2013-10-09 21:18:00,
2013-10-09 17:23:00,78.2,65.5,30.03,NW,304,3.5,3.5,65,0.00,CLR,,0.00,WeatherDisplay:10.37,2013-10-09 21:23:00,
2013-10-09 17:28:00,78.0,65.3,30.03,NW,304,4.0,4.0,65,0.00,CLR,,0.00,WeatherDisplay:10.37,2013-10-09 21:28:00,
2013-10-09 17:33:00,77.8,65.1,30.03,NW,310,3.5,3.5,65,0.00,CLR,,0.00,WeatherDisplay:10.37,2013-10-09 21:33:00,
2013-10-09 17:38:00,77.5,64.4,30.03,WNW,284,5.8,5.8,64,0.00,CLR,,0.00,WeatherDisplay:10.37,2013-10-09 21:38:00,
2013-10-09 17:43:00,77.1,64.4,30.03,WNW,283,3.5,3.5,65,0.00,CLR,,0.00,WeatherDisplay:10.37,2013-10-09 21:43:00,
2013-10-09 17:48:00,76.8,64.6,30.03,WNW,283,3.5,3.5,66,0.00,CLR,,0.00,WeatherDisplay:10.37,2013-10-09 21:48:00,
2013-10-09 17:53:00,76.6,64.8,30.03,WNW,284,0.0,0.0,67,0.00,CLR,,0.00,WeatherDisplay:10.37,2013-10-09 21:53:00,
2013-10-09 17:58:00,76.3,64.5,30.03,WNW,300,3.5,3.5,67,0.00,CLR,,0.00,WeatherDisplay:10.37,2013-10-09 21:58:00,
2013-10-09 18:03:00,76.0,64.7,30.03,WNW,303,0.0,0.0,68,0.00,CLR,,0.00,WeatherDisplay:10.37,2013-10-09 22:03:00,
2013-10-09 18:08:00,75.7,64.4,30.03,WNW,298,0.0,0.0,68,0.00,CLR,,0.00,WeatherDisplay:10.37,2013-10-09 22:08:00,
2013-10-09 18:13:00,75.5,64.6,30.03,WNW,299,0.0,0.0,69,0.00,CLR,,0.00,WeatherDisplay:10.37,2013-10-09 22:13:00,
2013-10-09 18:18:00,75.3,64.8,30.03,WNW,298,0.0,0.0,70,0.00,CLR,,0.00,WeatherDisplay:10.37,2013-10-09 22:18:00,
2013-10-09 18:23:00,75.2,64.7,30.03,WNW,298,0.0,0.0,70,0.00,CLR,,0.00,WeatherDisplay:10.37,2013-10-09 22:23:00,
2013-10-09 18:28:00,75.0,65.0,30.03,WNW,298,0.0,0.0,71,0.00,CLR,,0.00,WeatherDisplay:10.37,2013-10-09 22:28:00,
2013-10-09 18:33:00,74.9,64.9,30.03,WNW,298,0.0,0.0,71,0.00,CLR,,0.00,WeatherDisplay:10.37,2013-10-09 22:33:00,
2013-10-09 18:38:00,74.7,65.1,30.03,WNW,298,0.0,0.0,72,0.00,CLR,,0.00,WeatherDisplay:10.37,2013-10-09 22:38:00,
2013-10-09 18:43:00,74.4,65.2,30.03,WNW,298,0.0,0.0,73,0.00,CLR,,0.00,WeatherDisplay:10.37,2013-10-09 22:43:00,
2013-10-09 18:48:00,74.2,65.4,30.03,WNW,298,0.0,0.0,74,0.00,CLR,,0.00,WeatherDisplay:10.37,2013-10-09 22:48:00,
2013-10-09 18:53:00,73.9,65.1,30.03,WNW,298,0.0,0.0,74,0.00,CLR,,0.00,WeatherDisplay:10.37,2013-10-09 22:53:00,
2013-10-09 18:58:00,73.6,64.8,30.03,WNW,298,0.0,0.0,74,0.00,CLR,,0.00,WeatherDisplay:10.37,2013-10-09 22:58:00,
2013-10-09 19:03:00,73.3,64.9,30.03,WNW,298,0.0,0.0,75,0.00,CLR,,0.00,WeatherDisplay:10.37,2013-10-09 23:03:00,
2013-10-09 19:08:00,72.9,64.9,30.03,WNW,298,0.0,0.0,76,0.00,CLR,,0.00,WeatherDisplay:10.37,2013-10-09 23:08:00,
2013-10-09 19:13:00,72.5,64.5,30.03,WNW,298,0.0,0.0,76,0.00,CLR,,0.00,WeatherDisplay:10.37,2013-10-09 23:13:00,
2013-10-09 19:18:00,72.2,64.2,30.03,WNW,298,0.0,0.0,76,0.00,CLR,,0.00,WeatherDisplay:10.37,2013-10-09 23:18:00,
2013-10-09 19:23:00,71.7,63.7,30.03,WNW,298,0.0,0.0,76,0.00,CLR,,0.00,WeatherDisplay:10.37,2013-10-09 23:23:00,
2013-10-09 19:28:00,71.3,63.7,30.03,WNW,298,0.0,0.0,77,0.00,CLR,,0.00,WeatherDisplay:10.37,2013-10-09 23:28:00,
2013-10-09 19:33:00,70.9,63.7,30.03,WNW,298,0.0,0.0,78,0.00,CLR,,0.00,WeatherDisplay:10.37,2013-10-09 23:33:00,
2013-10-09 19:38:00,70.6,63.8,30.03,WNW,298,0.0,0.0,79,0.00,CLR,,0.00,WeatherDisplay:10.37,2013-10-09 23:38:00,
2013-10-09 19:43:00,70.1,63.3,30.03,WNW,298,0.0,0.0,79,0.00,CLR,,0.00,WeatherDisplay:10.37,2013-10-09 23:43:00,
2013-10-09 19:48:00,69.8,63.3,30.04,WNW,298,0.0,0.0,80,0.00,CLR,,0.00,WeatherDisplay:10.37,2013-10-09 23:48:00,
2013-10-09 19:53:00,69.4,63.0,30.03,WNW,298,0.0,0.0,80,0.00,CLR,,0.00,WeatherDisplay:10.37,2013-10-09 23:53:00,
2013-10-09 19:58:00,69.2,63.1,30.04,WNW,298,0.0,0.0,81,0.00,CLR,,0.00,WeatherDisplay:10.37,2013-10-09 23:58:00,
2013-10-09 20:03:00,68.9,62.8,30.04,WNW,298,0.0,0.0,81,0.00,CLR,,0.00,WeatherDisplay:10.37,2013-10-10 00:03:00,
2013-10-09 20:08:00,68.5,62.4,30.04,WNW,298,0.0,0.0,81,0.00,CLR,,0.00,WeatherDisplay:10.37,2013-10-10 00:08:00,
2013-10-09 20:13:00,68.2,62.5,30.04,WNW,298,0.0,0.0,82,0.00,CLR,,0.00,WeatherDisplay:10.37,2013-10-10 00:13:00,
2013-10-09 20:18:00,67.9,62.2,30.04,WNW,298,0.0,0.0,82,0.00,CLR,,0.00,WeatherDisplay:10.37,2013-10-10 00:18:00,
2013-10-09 20:23:00,67.6,62.3,30.04,WNW,298,0.0,0.0,83,0.00,CLR,,0.00,WeatherDisplay:10.37,2013-10-10 00:23:00,
2013-10-09 20:28:00,67.4,62.4,30.04,WNW,298,0.0,0.0,84,0.00,CLR,,0.00,WeatherDisplay:10.37,2013-10-10 00:28:00,
2013-10-09 20:33:00,67.1,62.4,30.04,WNW,298,0.0,0.0,85,0.00,CLR,,0.00,WeatherDisplay:10.37,2013-10-10 00:33:00,
2013-10-09 20:38:00,66.8,62.1,30.04,WNW,298,0.0,0.0,85,0.00,CLR,,0.00,WeatherDisplay:10.37,2013-10-10 00:38:00,
2013-10-09 20:43:00,66.6,62.3,30.04,WNW,298,0.0,0.0,86,0.00,CLR,,0.00,WeatherDisplay:10.37,2013-10-10 00:43:00,
2013-10-09 20:48:00,66.3,62.0,30.05,WNW,298,0.0,0.0,86,0.00,CLR,,0.00,WeatherDisplay:10.37,2013-10-10 00:48:00,
2013-10-09 20:53:00,66.1,61.8,30.05,WNW,298,0.0,0.0,86,0.00,CLR,,0.00,WeatherDisplay:10.37,2013-10-10 00:53:00,
2013-10-09 20:58:00,65.9,61.6,30.05,WNW,298,0.0,0.0,86,0.00,CLR,,0.00,WeatherDisplay:10.37,2013-10-10 00:58:00,
2013-10-09 21:03:00,65.7,61.7,30.05,WNW,298,0.0,0.0,87,0.00,CLR,,0.00,WeatherDisplay:10.37,2013-10-10 01:03:00,
2013-10-09 21:08:00,65.5,61.5,30.05,WNW,298,0.0,0.0,87,0.00,CLR,,0.00,WeatherDisplay:10.37,2013-10-10 01:08:00,
2013-10-09 21:13:00,65.3,61.3,30.05,WNW,298,0.0,0.0,87,0.00,CLR,,0.00,WeatherDisplay:10.37,2013-10-10 01:13:00,
2013-10-09 21:18:00,65.1,61.5,30.05,WNW,298,0.0,0.0,88,0.00,CLR,,0.00,WeatherDisplay:10.37,2013-10-10 01:18:00,
2013-10-09 21:23:00,64.9,61.3,30.05,WNW,298,0.0,0.0,88,0.00,CLR,,0.00,WeatherDisplay:10.37,2013-10-10 01:23:00,
2013-10-09 21:28:00,64.8,61.2,30.05,WNW,298,0.0,0.0,88,0.00,CLR,,0.00,WeatherDisplay:10.37,2013-10-10 01:28:00,
2013-10-09 21:33:00,64.6,61.3,30.05,WNW,298,0.0,0.0,89,0.00,CLR,,0.00,WeatherDisplay:10.37,2013-10-10 01:33:00,
2013-10-09 21:38:00,64.4,61.1,30.05,WNW,298,0.0,0.0,89,0.00,CLR,,0.00,WeatherDisplay:10.37,2013-10-10 01:38:00,
2013-10-09 21:43:00,64.3,61.0,30.05,WNW,298,0.0,0.0,89,0.00,CLR,,0.00,WeatherDisplay:10.37,2013-10-10 01:43:00,
2013-10-09 21:48:00,64.1,60.8,30.05,WNW,298,0.0,0.0,89,0.00,CLR,,0.00,WeatherDisplay:10.37,2013-10-10 01:48:00,
2013-10-09 21:53:00,64.0,61.0,30.05,WNW,298,0.0,0.0,90,0.00,CLR,,0.00,WeatherDisplay:10.37,2013-10-10 01:53:00,
2013-10-09 21:58:00,63.9,60.9,30.06,WNW,298,0.0,0.0,90,0.00,CLR,,0.00,WeatherDisplay:10.37,2013-10-10 01:58:00,
2013-10-09 22:03:00,63.8,60.8,30.06,WNW,298,0.0,0.0,90,0.00,CLR,,0.00,WeatherDisplay:10.37,2013-10-10 02:03:00,
2013-10-09 22:08:00,63.6,60.6,30.06,WNW,298,0.0,0.0,90,0.00,CLR,,0.00,WeatherDisplay:10.37,2013-10-10 02:08:00,
2013-10-09 22:13:00,63.5,60.5,30.06,WNW,298,0.0,0.0,90,0.00,CLR,,0.00,WeatherDisplay:10.37,2013-10-10 02:13:00,
2013-10-09 22:18:00,63.3,60.3,30.06,WNW,298,0.0,0.0,90,0.00,CLR,,0.00,WeatherDisplay:10.37,2013-10-10 02:18:00,
2013-10-09 22:23:00,63.2,60.2,30.06,WNW,298,0.0,0.0,90,0.00,CLR,,0.00,WeatherDisplay:10.37,2013-10-10 02:23:00,
2013-10-09 22:28:00,63.1,60.1,30.06,WNW,298,0.0,0.0,90,0.00,CLR,,0.00,WeatherDisplay:10.37,2013-10-10 02:28:00,
2013-10-09 22:33:00,63.0,60.3,30.06,WNW,298,0.0,0.0,91,0.00,CLR,,0.00,WeatherDisplay:10.37,2013-10-10 02:33:00,
2013-10-09 22:38:00,62.8,60.1,30.06,WNW,298,0.0,0.0,91,0.00,CLR,,0.00,WeatherDisplay:10.37,2013-10-10 02:38:00,
2013-10-09 22:43:00,62.7,60.0,30.07,WNW,298,0.0,0.0,91,0.00,CLR,,0.00,WeatherDisplay:10.37,2013-10-10 02:43:00,
2013-10-09 22:48:00,62.6,59.9,30.07,WNW,298,0.0,0.0,91,0.00,CLR,,0.00,WeatherDisplay:10.37,2013-10-10 02:48:00,
2013-10-09 22:53:00,62.4,59.7,30.06,WNW,298,0.0,0.0,91,0.00,CLR,,0.00,WeatherDisplay:10.37,2013-10-10 02:53:00,
2013-10-09 22:58:00,62.3,59.6,30.06,WNW,298,0.0,0.0,91,0.00,CLR,,0.00,WeatherDisplay:10.37,2013-10-10 02:58:00,
2013-10-09 23:03:00,62.1,59.4,30.06,WNW,298,0.0,0.0,91,0.00,CLR,,0.00,WeatherDisplay:10.37,2013-10-10 03:03:00,
2013-10-09 23:08:00,62.0,59.3,30.06,WNW,298,0.0,0.0,91,0.00,CLR,,0.00,WeatherDisplay:10.37,2013-10-10 03:08:00,
2013-10-09 23:13:00,61.9,59.2,30.06,WNW,298,0.0,0.0,91,0.00,CLR,,0.00,WeatherDisplay:10.37,2013-10-10 03:13:00,
2013-10-09 23:18:00,61.8,59.1,30.06,WNW,298,0.0,0.0,91,0.00,CLR,,0.00,WeatherDisplay:10.37,2013-10-10 03:18:00,
2013-10-09 23:23:00,61.7,59.4,30.06,WNW,298,0.0,0.0,92,0.00,CLR,,0.00,WeatherDisplay:10.37,2013-10-10 03:23:00,
2013-10-09 23:28:00,61.6,59.3,30.06,WNW,298,0.0,0.0,92,0.00,CLR,,0.00,WeatherDisplay:10.37,2013-10-10 03:28:00,
2013-10-09 23:33:00,61.6,59.3,30.06,WNW,298,0.0,0.0,92,0.00,CLR,,0.00,WeatherDisplay:10.37,2013-10-10 03:33:00,
2013-10-09 23:38:00,61.4,59.1,30.06,WNW,298,0.0,0.0,92,0.00,CLR,,0.00,WeatherDisplay:10.37,2013-10-10 03:38:00,
2013-10-09 23:43:00,61.3,59.0,30.06,WNW,298,0.0,0.0,92,0.00,CLR,,0.00,WeatherDisplay:10.37,2013-10-10 03:43:00,
2013-10-09 23:48:00,61.3,59.0,30.06,WNW,298,0.0,0.0,92,0.00,CLR,,0.00,WeatherDisplay:10.37,2013-10-10 03:48:00,
2013-10-09 23:53:00,61.2,58.9,30.06,WNW,298,0.0,0.0,92,0.00,CLR,,0.00,WeatherDisplay:10.37,2013-10-10 03:53:00,
2013-10-09 23:58:00,61.1,58.8,30.06,WNW,298,0.0,0.0,92,0.00,CLR,,0.00,WeatherDisplay:10.37,2013-10-10 03:58:00,